This is the latest recevied weather packets stored in our database for station/object ac2ev. If no packets are shown the sender has not sent any weather packets the latest 10 day(s).
| Time | Temp. | Humidity | Pressure | Rain* | Wind** | Luminosity | Snow |
|---|---|---|---|---|---|---|---|
| 1777327261 | 15° C | 59% | 1018.9 hPa | 0 mm | - | - | - |
| 1777326962 | 15° C | 59% | 1018.8 hPa | 0 mm | - | - | - |
| 1777326659 | 14.44° C | 60% | 1018.7 hPa | 0 mm | - | - | - |
| 1777326359 | 14.44° C | 60% | 1018.8 hPa | 0 mm | - | - | - |
| 1777326059 | 14.44° C | 60% | 1018.8 hPa | 0 mm | - | - | - |
| 1777325759 | 14.44° C | 60% | 1018.9 hPa | 0 mm | - | - | - |
| 1777325459 | 14.44° C | 59% | 1018.9 hPa | 0 mm | - | - | - |
| 1777325159 | 14.44° C | 60% | 1019 hPa | 0 mm | - | - | - |
| 1777324859 | 13.89° C | 60% | 1019.1 hPa | 0 mm | - | - | - |
| 1777324559 | 13.89° C | 60% | 1019.2 hPa | 0 mm | - | - | - |
| 1777324259 | 14.44° C | 61% | 1019.2 hPa | 0 mm | - | - | - |
| 1777323955 | 14.44° C | 60% | 1019.3 hPa | 0 mm | - | - | - |
| 1777323655 | 14.44° C | 62% | 1019.2 hPa | 0 mm | - | - | - |
| 1777323353 | 13.89° C | 61% | 1019.2 hPa | 0 mm | - | - | - |
| 1777323053 | 13.89° C | 62% | 1019.3 hPa | 0 mm | - | - | - |
| 1777322750 | 13.89° C | 60% | 1019.4 hPa | 0 mm | - | - | - |
| 1777322450 | 13.89° C | 61% | 1019.4 hPa | 0 mm | - | - | - |
| 1777322148 | 13.89° C | 61% | 1019.5 hPa | 0 mm | - | - | - |
| 1777321846 | 13.89° C | 60% | 1019.4 hPa | 0 mm | - | - | - |
| 1777321544 | 14.44° C | 59% | 1019.5 hPa | 0 mm | - | - | - |
| 1777321244 | 14.44° C | 59% | 1019.6 hPa | 0 mm | - | - | - |
| 1777320945 | 14.44° C | 62% | 1019.7 hPa | 0 mm | - | - | - |
| 1777320643 | 14.44° C | 63% | 1019.8 hPa | 0 mm | - | - | - |
| 1777320340 | 14.44° C | 60% | 1020 hPa | 0 mm | - | - | - |
| 1777320038 | 14.44° C | 60% | 1020.1 hPa | 0 mm | - | - | - |
* Rain latest hour (hover to see other rain measurements)
** Current wind speed in m/s (hover to see current wind gust speed)